DW3400 Frejlev DK current weather conditions

sailwx.info

Wind from 093 at 4 knots gusting 6

Air temperature -1.7° C
Dewpoint -3.9° C

Last reported at 2019-Jan-23 17:10 UTC.
Time now 2019-Jan-23 17:55 UTC

Location: N 54°42' E 011°46'.
View on Google Maps.

See reports from other nearby stations

  
Tides and Currents Weather Stations Pressure Air Temp Water Temp Dewpoint Dewpoint Depression Visibility Wind Speed Wind Dir Waves Ship Positions
date/time (UTC)wind fromknots sea level pressurealtimeterstation pressurevisibilityair tempwater tempwave heightnotes
2019-Jan-23 17:10 093 4 gusting 6 -1.7
2019-Jan-23 17:05 090 4 gusting 7 -1.7
2019-Jan-23 17:00 135 4 gusting 7 -1.7
2019-Jan-23 16:55 135 2 gusting 6 -1.1
2019-Jan-23 16:50 135 4 gusting 6 -1.1
2019-Jan-23 16:45 114 4 gusting 8 -1.1
2019-Jan-23 16:40 091 4 gusting 8 -1.1
2019-Jan-23 16:35 133 4 gusting 7 -1.1
2019-Jan-23 16:30 135 3 gusting 7 -1.1
2019-Jan-23 16:20 135 4 gusting 7 -1.1
2019-Jan-23 16:10 132 2 gusting 6 -1.1
2019-Jan-23 16:05 135 4 gusting 6 -1.1
2019-Jan-23 16:00 130 4 gusting 6 -1.1
2019-Jan-23 15:50 110 3 gusting 6 -1.1
2019-Jan-23 15:45 134 2 gusting 6 -1.1
2019-Jan-23 15:40 090 0 gusting 2 -1.1
2019-Jan-23 15:30 090 1 gusting 4 -1.1
2019-Jan-23 15:25 090 1 gusting 4 -1.1
2019-Jan-23 15:15 091 0 gusting 2 -1.1
2019-Jan-23 15:10 135 1 gusting 6 -1.1
2019-Jan-23 15:05 135 0 gusting 2 -0.6
2019-Jan-23 15:00 090 0 gusting 6 -0.6
2019-Jan-23 14:50 134 2 gusting 4 -0.6
2019-Jan-23 14:40 135 2 gusting 6 -0.6
2019-Jan-23 14:30 176 2 gusting 6 -0.6
2019-Jan-23 14:25 135 2 gusting 5 -0.6
2019-Jan-23 14:15 131 2 gusting 4 -0.6
2019-Jan-23 14:10 090 1 gusting 4 -0.0
2019-Jan-23 14:00 131 1 gusting 6 -0.0
2019-Jan-23 13:55 135 1 gusting 6 -0.0
2019-Jan-23 13:40 138 2 gusting 6 -0.0
2019-Jan-23 13:35 134 2 gusting 6 -0.0
2019-Jan-23 13:30 090 2 gusting 5 -0.0
2019-Jan-23 13:25 135 2 gusting 6 0.6
2019-Jan-23 13:20 093 2 gusting 6 0.6
2019-Jan-23 13:15 110 2 gusting 6 -0.0
2019-Jan-23 13:05 158 2 gusting 5 -0.0
2019-Jan-23 13:00 135 2 gusting 6 -0.0
2019-Jan-23 12:45 094 2 gusting 5 -0.0
2019-Jan-23 12:35 092 2 gusting 6 -0.0
2019-Jan-23 12:30 135 1 gusting 5 -0.0
2019-Jan-23 12:20 132 2 gusting 7 -0.0
2019-Jan-23 12:10 135 2 gusting 6 -0.0
2019-Jan-23 12:05 135 2 gusting 6 -0.0
2019-Jan-23 12:00 093 3 gusting 6 -0.0
2019-Jan-23 11:55 135 2 gusting 6 -0.0
2019-Jan-23 11:50 135 2 gusting 5 -0.0
2019-Jan-23 11:45 132 2 gusting 6 -0.0
2019-Jan-23 11:40 135 2 gusting 6 -0.0
2019-Jan-23 11:30 092 4 gusting 7 -0.6
2019-Jan-23 11:25 114 2 gusting 6 -0.6
2019-Jan-23 11:20 138 2 gusting 6 -0.6
2019-Jan-23 11:15 156 2 gusting 6 -0.6
2019-Jan-23 11:00 135 2 gusting 6 -0.6
2019-Jan-23 10:50 131 3 gusting 6 -0.6
2019-Jan-23 10:40 114 2 gusting 7 -1.1
2019-Jan-23 10:35 135 4 gusting 7 -1.1
2019-Jan-23 10:25 135 2 gusting 5 -1.7
2019-Jan-23 10:20 135 2 gusting 6 -1.7
2019-Jan-23 10:15 093 2 gusting 6 -1.7
2019-Jan-23 10:05 090 2 gusting 5 -1.7
2019-Jan-23 09:45 135 2 gusting 6 -1.7
2019-Jan-23 09:40 156 2 gusting 5 -1.7
2019-Jan-23 09:35 135 2 gusting 6 -1.7
2019-Jan-23 09:30 135 2 gusting 5 -1.7
2019-Jan-23 09:25 135 2 gusting 6 -1.7
2019-Jan-23 09:20 135 4 gusting 7 -1.7
2019-Jan-23 09:15 135 4 gusting 6 -1.7
2019-Jan-23 09:05 180 4 gusting 6 -2.2
2019-Jan-23 09:00 135 2 gusting 6 -2.2
2019-Jan-23 08:55 135 4 gusting 8 -2.2
2019-Jan-23 08:50 178 4 gusting 6 -2.2
2019-Jan-23 08:45 135 3 gusting 6 -2.2
2019-Jan-23 08:40 177 2 gusting 6 -2.2
2019-Jan-23 08:35 177 4 gusting 6 -2.2
2019-Jan-23 08:30 157 4 gusting 6 -2.2
2019-Jan-23 08:25 180 4 gusting 8 -2.2
2019-Jan-23 08:15 177 5 gusting 8 -2.8
2019-Jan-23 08:05 180 4 gusting 6 -2.8
2019-Jan-23 07:50 135 5 gusting 8 -2.8
2019-Jan-23 07:45 177 3 gusting 8 -2.8
2019-Jan-23 07:40 179 5 gusting 10 -2.8
2019-Jan-23 07:35 180 4 gusting 8 -2.8
2019-Jan-23 07:20 158 5 gusting 8 -2.8
2019-Jan-23 07:15 138 5 gusting 6 -2.8
2019-Jan-23 06:50 140 4 gusting 7 -2.8
2019-Jan-23 06:45 116 4 gusting 6 -2.8
2019-Jan-23 06:40 178 4 gusting 8 -2.8
2019-Jan-23 06:35 157 5 gusting 8 -2.8
2019-Jan-23 06:30 175 4 gusting 7 -2.8
2019-Jan-23 06:25 135 2 gusting 8 -2.8
2019-Jan-23 06:10 138 5 gusting 7 -2.8
2019-Jan-23 06:05 180 5 gusting 7 -2.8
2019-Jan-23 06:00 156 5 gusting 8 -2.8
2019-Jan-23 05:55 180 5 gusting 8 -2.2
2019-Jan-23 05:40 135 4 gusting 8 -2.2
2019-Jan-23 05:35 179 4 gusting 8 -2.2
2019-Jan-23 05:30 178 4 gusting 8 -2.2
2019-Jan-23 05:20 137 4 gusting 6 -2.2
2019-Jan-23 05:10 139 4 gusting 6 -2.2
2019-Jan-23 05:05 135 5 gusting 7 -2.2
2019-Jan-23 04:55 177 4 gusting 8 -2.2
2019-Jan-23 04:50 135 4 gusting 8 -2.2
2019-Jan-23 04:45 178 5 gusting 8 -2.2
2019-Jan-23 04:40 137 5 gusting 8 -2.2
2019-Jan-23 04:35 138 4 gusting 6 -2.2
2019-Jan-23 04:30 137 4 gusting 6 -2.2
2019-Jan-23 04:15 140 4 gusting 8 -2.2
2019-Jan-23 04:10 179 5 gusting 8 -2.2
2019-Jan-23 04:05 180 6 gusting 8 -2.2
2019-Jan-23 04:00 177 5 gusting 8 -2.2
2019-Jan-23 03:55 138 4 gusting 6 -2.2
2019-Jan-23 03:40 202 5 gusting 12 -2.2
2019-Jan-23 03:35 180 2 gusting 8 -2.2
2019-Jan-23 03:30 157 5 gusting 8 -2.2
2019-Jan-23 03:25 180 4 gusting 7 -2.2
2019-Jan-23 03:20 177 3 gusting 6 -2.2
2019-Jan-23 03:15 180 5 gusting 6 -2.2
2019-Jan-23 03:10 133 3 gusting 6 -2.2
2019-Jan-23 03:05 180 2 gusting 6 -2.2
2019-Jan-23 02:55 177 3 gusting 8 -2.2
2019-Jan-23 02:45 179 4 gusting 11 -2.2
2019-Jan-23 02:40 138 4 gusting 8 -2.2
2019-Jan-23 02:30 139 4 gusting 8 -1.7
2019-Jan-23 02:25 159 4 gusting 6 -1.7
2019-Jan-23 02:20 180 5 gusting 6 -1.7
2019-Jan-23 02:10 138 5 gusting 8 -1.7
2019-Jan-23 02:00 138 5 gusting 8 -1.7
2019-Jan-23 01:55 135 5 gusting 8 -1.7
2019-Jan-23 01:50 180 5 gusting 7 -1.7
2019-Jan-23 01:45 138 4 gusting 8 -1.7
2019-Jan-23 01:40 135 5 gusting 8 -1.7
2019-Jan-23 01:35 180 5 gusting 10 -1.7
2019-Jan-23 01:20 180 5 gusting 10 -1.7
2019-Jan-23 01:10 180 4 gusting 8 -1.7
2019-Jan-23 01:05 158 4 gusting 8 -1.7
2019-Jan-23 01:00 180 5 gusting 8 -1.7
2019-Jan-23 00:55 159 3 gusting 7 -1.7
2019-Jan-23 00:50 180 5 gusting 10 -1.1
2019-Jan-23 00:45 179 5 gusting 10 -1.1
2019-Jan-23 00:35 180 5 gusting 7 -1.1
2019-Jan-23 00:18 160 5 gusting 11 -1.1
2019-Jan-23 00:10 180 5 gusting 8 -1.1
2019-Jan-23 00:05 180 5 gusting 7 -1.1
2019-Jan-23 00:00 180 5 gusting 8 -1.1
2019-Jan-22 23:55 138 4 gusting 8 -1.1
2019-Jan-22 23:50 181 5 gusting 8 -1.1
2019-Jan-22 23:40 180 5 gusting 13 -1.1
2019-Jan-22 23:35 180 6 gusting 10 -1.1
2019-Jan-22 23:15 177 5 gusting 8 -1.1
2019-Jan-22 23:10 138 6 gusting 7 -1.1
2019-Jan-22 23:05 135 6 gusting 8 -1.1
2019-Jan-22 23:00 221 5 gusting 8 -1.1
2019-Jan-22 22:55 159 6 gusting 8 -1.1
2019-Jan-22 22:50 198 5 gusting 11 -1.1
2019-Jan-22 22:45 138 6 gusting 11 -1.1
2019-Jan-22 22:40 138 6 gusting 11 -1.1
2019-Jan-22 22:35 157 6 gusting 11 -0.6
2019-Jan-22 22:30 180 5 gusting 10 -0.6
2019-Jan-22 22:25 178 5 gusting 10 -0.6
2019-Jan-22 22:00 180 6 gusting 11 -0.6
2019-Jan-22 21:40 180 6 gusting 11 -0.6
2019-Jan-22 21:35 180 6 gusting 11 -0.6
2019-Jan-22 21:30 180 6 gusting 11 -0.6
2019-Jan-22 21:25 180 6 gusting 10 -0.6
2019-Jan-22 21:20 178 5 gusting 13 -0.6
2019-Jan-22 21:15 177 5 gusting 11 -0.6
2019-Jan-22 21:10 177 6 gusting 10 -0.6
2019-Jan-22 21:05 180 6 gusting 11 -0.6
2019-Jan-22 21:00 135 7 gusting 12 -0.6
2019-Jan-22 20:55 139 7 gusting 11 -0.6
2019-Jan-22 20:50 133 7 gusting 11 -0.6
2019-Jan-22 20:45 135 6 gusting 13 -0.6
2019-Jan-22 20:40 156 6 gusting 13 -0.6
2019-Jan-22 20:35 178 6 gusting 11 -0.6
2019-Jan-22 20:30 178 5 gusting 10 -0.6
2019-Jan-22 20:25 180 5 gusting 11 -0.6
2019-Jan-22 20:20 180 5 gusting 8 -0.6
2019-Jan-22 20:15 155 6 gusting 12 -0.6
2019-Jan-22 20:10 160 7 gusting 12 -0.6
2019-Jan-22 20:05 158 6 gusting 11 -0.6
2019-Jan-22 20:00 136 7 gusting 11 -0.6
2019-Jan-22 19:50 180 6 gusting 10 -0.0
2019-Jan-22 19:45 178 5 gusting 10 -0.0
2019-Jan-22 19:40 180 4 gusting 10 -0.0
2019-Jan-22 19:35 138 6 gusting 10 -0.0
2019-Jan-22 19:25 180 5 gusting 8 -0.0
2019-Jan-22 19:20 138 5 gusting 10 -0.0
2019-Jan-22 19:15 137 5 gusting 12 -0.0
2019-Jan-22 19:10 138 5 gusting 11 -0.0
2019-Jan-22 19:05 180 6 gusting 8 -0.0
2019-Jan-22 19:00 116 6 gusting 11 -0.0
2019-Jan-22 18:55 177 5 gusting 11 -0.0
2019-Jan-22 18:50 135 6 gusting 12 -0.0
2019-Jan-22 18:30 135 5 gusting 11 -0.0
2019-Jan-22 18:25 177 6 gusting 11 -0.0
2019-Jan-22 18:20 135 5 gusting 11 -0.0
2019-Jan-22 18:10 139 4 gusting 8 -0.0
2019-Jan-22 18:05 180 5 gusting 8 -0.0
2019-Jan-22 18:00 180 4 gusting 7 -0.0
2019-Jan-22 17:55 139 4 gusting 12 -0.0
2019-Jan-22 17:50 135 5 gusting 8 -0.0
2019-Jan-22 17:45 136 4 gusting 8 -0.0
2019-Jan-22 17:40 135 3 gusting 6 -0.0
2019-Jan-22 17:35 156 2 gusting 6 0.6
2019-Jan-22 17:30 178 5 gusting 10 0.6
2019-Jan-22 17:20 180 5 gusting 8 0.6
2019-Jan-22 17:15 178 4 gusting 7 0.6
2019-Jan-22 17:05 135 6 gusting 13 0.6
2019-Jan-22 17:00 114 5 gusting 13 0.6
2019-Jan-22 16:55 135 5 gusting 8 0.6
2019-Jan-22 16:50 156 6 gusting 12 0.6
2019-Jan-22 16:45 178 6 gusting 13 1.1
2019-Jan-22 16:40 138 6 gusting 11 1.1
2019-Jan-22 16:25 180 6 gusting 11 1.1
2019-Jan-22 16:20 135 6 gusting 10 1.1
2019-Jan-22 16:10 158 4 gusting 6 1.1
2019-Jan-22 16:05 180 2 gusting 5 1.1
2019-Jan-22 15:55 180 5 gusting 8 1.1
2019-Jan-22 15:50 139 4 gusting 10 1.1
2019-Jan-22 15:40 177 4 gusting 6 1.7
2019-Jan-22 15:35 177 4 gusting 8 1.7
2019-Jan-22 15:30 180 6 gusting 11 1.7
2019-Jan-22 15:20 177 5 gusting 8 1.7
2019-Jan-22 15:15 221 2 gusting 8 1.1
2019-Jan-22 15:05 135 4 gusting 8 1.1
2019-Jan-22 15:00 179 5 gusting 11 1.1
2019-Jan-22 14:55 201 5 gusting 11 1.1
2019-Jan-22 14:50 178 5 gusting 8 1.1
2019-Jan-22 14:45 177 3 gusting 8 1.1
2019-Jan-22 14:40 180 5 gusting 10 1.1
2019-Jan-22 14:25 222 4 gusting 10 1.1
2019-Jan-22 14:10 200 3 gusting 7 1.1
2019-Jan-22 14:00 138 4 gusting 10 1.1
2019-Jan-22 13:50 160 4 gusting 7 1.7
2019-Jan-22 13:45 223 4 gusting 7 1.1
2019-Jan-22 13:40 135 3 gusting 8 1.1
2019-Jan-22 13:35 180 2 gusting 6 1.1
2019-Jan-22 13:20 180 2 gusting 8 1.1
2019-Jan-22 13:10 200 2 gusting 6 1.1
2019-Jan-22 13:05 180 4 gusting 6 1.1
2019-Jan-22 12:55 201 4 gusting 8 0.6
2019-Jan-22 12:50 180 2 gusting 6 0.6
2019-Jan-22 12:45 200 4 gusting 7 0.6
2019-Jan-22 12:40 201 5 gusting 13 0.6
2019-Jan-22 12:35 180 3 gusting 8 0.6
2019-Jan-22 12:30 180 5 gusting 8 0.6
2019-Jan-22 12:25 180 5 gusting 12 0.6
2019-Jan-22 12:20 204 6 gusting 13 0.6
2019-Jan-22 12:15 182 5 gusting 11 0.6
2019-Jan-22 12:05 180 5 gusting 8 0.6
2019-Jan-22 11:55 184 6 gusting 13 0.6
2019-Jan-22 11:50 180 6 gusting 13 0.6
2019-Jan-22 11:45 181 4 gusting 10 0.6
2019-Jan-22 11:40 225 5 gusting 8 0.6
2019-Jan-22 11:35 225 6 gusting 12 0.6
2019-Jan-22 11:20 180 2 gusting 6 0.6
2019-Jan-22 11:15 177 4 gusting 6 0.6
2019-Jan-22 11:10 180 4 gusting 6 0.6
2019-Jan-22 11:05 180 2 gusting 7 0.6
2019-Jan-22 11:00 223 4 gusting 11 0.6
2019-Jan-22 10:55 201 4 gusting 8 0.6
2019-Jan-22 10:45 180 4 gusting 8 0.6
2019-Jan-22 10:40 204 4 gusting 8 0.6
2019-Jan-22 10:35 180 4 gusting 8 0.6
2019-Jan-22 10:20 139 3 gusting 7 0.6
2019-Jan-22 10:15 180 2 gusting 6 0.6
2019-Jan-22 09:55 223 5 gusting 10 0.6
2019-Jan-22 09:50 180 5 gusting 8 0.6
2019-Jan-22 09:45 225 3 gusting 8 0.6
2019-Jan-22 09:40 225 6 gusting 10 0.6
2019-Jan-22 09:35 223 6 gusting 11 0.6
2019-Jan-22 09:25 183 6 gusting 12 0.6
2019-Jan-22 09:20 225 6 gusting 12 0.6
2019-Jan-22 09:05 180 6 gusting 13 0.6
2019-Jan-22 08:55 202 6 gusting 11 -0.0
2019-Jan-22 08:50 202 7 gusting 12 0.6
2019-Jan-22 08:45 225 8 gusting 13 0.6
2019-Jan-22 08:40 223 6 gusting 11 0.6
2019-Jan-22 08:35 180 7 gusting 12 0.6
2019-Jan-22 08:30 204 7 gusting 13 0.6
2019-Jan-22 08:25 200 8 gusting 14 0.6
2019-Jan-22 08:20 225 6 gusting 10 1.1
2019-Jan-22 08:05 202 6 gusting 12 1.1
2019-Jan-22 08:00 202 8 gusting 13 1.1
2019-Jan-22 07:55 221 7 gusting 11 1.1
2019-Jan-22 07:50 222 7 gusting 11 1.1
2019-Jan-22 07:35 182 6 gusting 12 1.1
2019-Jan-22 07:30 225 7 gusting 12 1.1
2019-Jan-22 07:25 222 7 gusting 12 1.1
2019-Jan-22 07:20 181 6 gusting 11 1.1
2019-Jan-22 07:15 181 2 gusting 6 1.1
2019-Jan-22 07:10 180 3 gusting 6 1.1
2019-Jan-22 06:50 201 1 gusting 7 1.1
2019-Jan-22 06:45 182 4 gusting 8 1.1
2019-Jan-22 06:35 222 5 gusting 7 1.1
2019-Jan-22 06:30 181 5 gusting 6 1.1
2019-Jan-22 06:20 201 2 gusting 6 1.1
2019-Jan-22 06:15 228 1 gusting 6 1.1
2019-Jan-22 06:10 225 2 gusting 5 1.1
2019-Jan-22 06:05 180 2 gusting 2 0.6
2019-Jan-22 06:00 225 1 gusting 2 0.6
2019-Jan-22 05:55 225 0.6
2019-Jan-22 05:50 248 0.6
2019-Jan-22 05:45 180 0 gusting 5 0.6
2019-Jan-22 05:40 224 0 gusting 4 1.1
2019-Jan-22 05:35 223 2 gusting 7 1.1
2019-Jan-22 05:30 225 5 gusting 10 1.1
2019-Jan-22 05:25 181 4 gusting 6 1.1
2019-Jan-22 05:20 204 1 gusting 6 1.1
2019-Jan-22 05:15 222 2 gusting 6 1.1
2019-Jan-22 05:10 202 0 gusting 7 1.1
2019-Jan-22 05:05 158 0 gusting 6 1.1
2019-Jan-22 05:00 185 4 gusting 7 1.1
2019-Jan-22 04:55 201 4 gusting 6 1.1
2019-Jan-22 04:50 266 0 gusting 4 1.1
2019-Jan-22 04:45 229 1 gusting 5 1.1
2019-Jan-22 04:40 248 1 gusting 4 1.1
2019-Jan-22 04:35 225 0 gusting 4 1.1
2019-Jan-22 04:30 222 0 gusting 5 1.7
2019-Jan-22 04:20 221 1 gusting 5 1.7
2019-Jan-22 04:10 312 2 gusting 6 1.7
2019-Jan-22 04:05 225 2 gusting 6 1.7
2019-Jan-22 03:55 225 2 gusting 5 1.7
2019-Jan-22 03:45 232 1 gusting 6 1.7
2019-Jan-22 03:40 270 1 gusting 6 1.7
2019-Jan-22 03:25 263 0 gusting 5 1.7
2019-Jan-22 03:20 270 0 gusting 5 1.7
2019-Jan-22 03:15 270 0 gusting 5 1.7
2019-Jan-22 03:05 225 0 gusting 2 1.7
2019-Jan-22 02:55 183 1 gusting 5 1.7
2019-Jan-22 02:45 270 0 gusting 4 1.7
2019-Jan-22 02:40 270 1 gusting 4 1.7
2019-Jan-22 02:30 270 0 gusting 5 1.7
2019-Jan-22 02:25 233 1 gusting 2 1.7
2019-Jan-22 02:10 308 0 gusting 2 1.7
2019-Jan-22 02:05 315 0 gusting 5 1.7
2019-Jan-22 02:00 310 1 gusting 5 1.7
2019-Jan-22 01:55 220 0 gusting 2 1.7
2019-Jan-22 01:50 309 1 gusting 4 1.7
2019-Jan-22 01:45 315 0 gusting 5 1.7
2019-Jan-22 01:40 270 1 gusting 4 1.7
2019-Jan-22 01:35 270 0 gusting 5 1.7
2019-Jan-22 01:30 270 1 gusting 5 1.7
2019-Jan-22 01:20 312 1 gusting 7 1.7
2019-Jan-22 01:15 293 4 gusting 7 1.7
2019-Jan-22 01:10 270 1.7
2019-Jan-22 01:05 315 0 gusting 5 1.7
2019-Jan-22 01:00 225 1 gusting 6 1.7
2019-Jan-22 00:50 270 2 gusting 6 1.7
2019-Jan-22 00:45 270 0 gusting 5 1.7
2019-Jan-22 00:40 271 1 gusting 5 1.7
2019-Jan-22 00:35 270 1 gusting 5 1.7
2019-Jan-22 00:25 225 1 gusting 6 2.2
2019-Jan-22 00:15 270 2 gusting 6 2.2
2019-Jan-21 23:45 270 1 gusting 7 2.2
2019-Jan-21 23:40 291 1 gusting 8 2.2
2019-Jan-21 23:30 270 2 gusting 6 2.2
2019-Jan-21 23:25 228 2 gusting 6 2.2
2019-Jan-21 23:20 235 1 gusting 5 2.2
2019-Jan-21 23:05 315 2 gusting 6 2.2
2019-Jan-21 23:00 227 1 gusting 6 2.2
2019-Jan-21 22:55 225 0 gusting 5 2.2
2019-Jan-21 22:50 343 1 gusting 6 2.2
2019-Jan-21 22:40 225 2 gusting 6 1.7
2019-Jan-21 22:35 229 1 gusting 5 1.7
2019-Jan-21 22:20 247 1 gusting 6 1.7
2019-Jan-21 22:15 313 2 gusting 6 1.7
2019-Jan-21 22:10 270 2 gusting 6 1.7
2019-Jan-21 22:05 270 0 gusting 5 1.7
2019-Jan-21 22:00 270 2 gusting 8 1.7
2019-Jan-21 21:55 309 1 gusting 6 1.7
2019-Jan-21 21:50 255 2 gusting 6 1.7
2019-Jan-21 21:45 226 1 gusting 6 1.7
2019-Jan-21 21:40 270 0 gusting 5 1.7
2019-Jan-21 21:35 270 0 gusting 4 1.7
2019-Jan-21 21:30 228 0 gusting 4 1.7
2019-Jan-21 21:20 245 0 gusting 5 1.7
2019-Jan-21 21:15 270 0 gusting 5 1.7
2019-Jan-21 21:10 290 1 gusting 5 1.7
2019-Jan-21 20:55 247 0 gusting 6 1.7
2019-Jan-21 20:50 270 1 gusting 6 1.7
2019-Jan-21 20:45 225 0 gusting 5 1.7
2019-Jan-21 20:40 272 2 gusting 5 1.7
2019-Jan-21 20:30 267 2 gusting 6 1.7
2019-Jan-21 20:25 315 1 gusting 5 1.7
2019-Jan-21 20:20 270 1 gusting 6 1.7
2019-Jan-21 20:05 315 1 gusting 6 2.2
2019-Jan-21 20:00 270 2 gusting 6 2.2
2019-Jan-21 19:55 225 1 gusting 8 2.2
2019-Jan-21 19:50 270 3 gusting 8 2.2
2019-Jan-21 19:45 271 2 gusting 8 2.2
2019-Jan-21 19:35 226 1 gusting 6 2.2
2019-Jan-21 19:30 292 1 gusting 6 2.2
2019-Jan-21 19:25 225 1 gusting 6 2.2
2019-Jan-21 19:20 223 1 gusting 6 2.2
2019-Jan-21 19:15 267 1 gusting 6 2.2
2019-Jan-21 19:10 225 2 gusting 6 2.8
2019-Jan-21 19:05 270 2 gusting 6 2.8
2019-Jan-21 19:00 270 1 gusting 6 2.8
2019-Jan-21 18:50 225 4 gusting 11 2.8
2019-Jan-21 18:45 229 2 gusting 7 2.8
2019-Jan-21 18:40 251 3 gusting 7 2.8
2019-Jan-21 18:35 291 2 gusting 7 2.8
2019-Jan-21 18:30 225 3 gusting 7 2.8
2019-Jan-21 18:25 274 1 gusting 6 2.8
2019-Jan-21 18:20 227 1 gusting 6 2.8
2019-Jan-21 18:05 315 2 gusting 7 2.8
2019-Jan-21 17:55 226 2 gusting 8 2.8
2019-Jan-21 17:45 225 3 gusting 10 2.2
2019-Jan-21 17:40 269 1 gusting 8 2.2
2019-Jan-21 17:35 289 1 gusting 6 2.2
2019-Jan-21 17:30 248 1 gusting 6 2.2
2019-Jan-21 17:25 265 3 gusting 8 2.2
2019-Jan-21 17:20 180 0 gusting 5 2.2
2019-Jan-21 17:10 227 3 gusting 8 2.2